Location: Anan
(43.3550°N, 0.8171°E)
Time: 10:56:31
(UTC+00:00)

Tsikada Rocket - Pass Details

Date: 14 May 2026
Orbit: 956 x 1009 km, 82.9° (Epoch: 8 June)

Event Time Altitude Azimuth Distance (km) Brightness Sun altitude
Rises 20:11:16 0° 355° (N) 3,653 7.7 -9.7°
Reaches altitude 10° 20:13:50 10° 359° (N) 2,699 6.9 -10.1°
Maximum altitude 20:19:54 58° 79° (ENE) 1,106 4.1 -11.0°
Enters shadow 20:25:38 12° 157° (SSE) 2,573 5.7 -11.8°
